Temp
74 78 73 74 74 74 73 73 73 74 74 74 74 74 74 75 75 75 75 75 76 77 77 77 77 77 76 76 75 74 73 73 74 74 75 75 75 75 74 73 75 79 74
77 79 72 73 74 74 73 73 73 74 74 74 74 74 74 74 75 75 75 76 76 77 77 77 76 76 76 75 74 73 73 72 72 73 75 76 75 75 74 73 73 76 74
75 79 77 73 73 73 74 74 74 74 74 74 74 74 74 75 75 75 75 76 76 77 77 77 76 76 75 74 73 73 72 72 71 72 74 81 79 74 74 73 73 73 73
76 79 78 72 73 73 73 74 74 75 74 74 74 74 74 75 75 75 75 75 76 77 77 77 76 75 74 73 72 72 71 71 70 72 79 80 79 74 73 73 73 73 73
75 78 77 72 73 73 73 74 74 74 73 74 74 74 75 75 75 75 74 75 76 77 77 77 75 74 72 71 71 71 70 69 70 76 80 78 79 75 73 73 73 72 72
73 77 72 71 72 73 73 73 73 73 73 73 73 74 75 75 75 74 74 75 76 76 76 75 74 72 71 70 70 70 69 69 73 80 79 76 77 73 73 72 71 71 71
71 72 71 70 72 73 73 73 72 72 72 73 73 73 74 74 74 73 73 74 74 74 74 73 72 71 70 70 70 69 68 68 78 78 78 77 75 73 72 71 71 70 70
68 69 70 71 71 72 72 71 71 71 72 72 72 73 73 72 72 72 72 72 72 72 72 72 71 71 70 70 69 68 67 69 77 77 77 78 72 72 72 71 70 70 69
67 66 65 66 68 69 69 69 69 70 71 71 71 71 71 70 71 71 71 72 72 71 71 71 71 70 70 69 68 66 66 67 76 77 77 78 72 72 72 71 70 69 69
64 63 62 63 64 66 70 69 69 69 69 69 70 69 69 70 70 70 70 71 71 71 71 71 70 69 68 67 66 65 64 67 75 76 77 76 71 71 71 71 70 69 68
60 59 60 61 64 65 69 71 70 69 69 69 70 68 69 76 75 75 70 69 70 69 69 69 68 67 66 66 66 65 67 74 75 75 76 68 71 71 70 69 69 68 68
57 58 59 62 64 67 70 71 69 69 70 72 74 73 75 73 75 75 71 68 68 67 67 67 66 66 70 74 73 69 73 71 73 73 75 66 71 71 69 69 68 68 67
61 61 62 63 64 65 66 66 68 69 70 72 71 72 71 72 72 73 73 73 72 69 72 70 71 72 70 71 70 69 69 70 72 73 69 65 68 71 69 68 68 67 67
62 62 62 62 62 63 65 66 68 69 71 71 72 70 70 71 71 71 72 71 68 69 68 70 69 67 68 68 68 67 67 69 72 72 69 62 65 68 70 69 67 67 66
63 64 63 63 64 66 66 66 68 68 70 69 70 70 69 70 67 70 68 69 69 70 69 68 68 69 67 66 67 66 66 65 66 70 71 60 63 65 68 69 68 67 66
65 65 66 66 68 69 67 67 68 69 69 69 70 69 69 70 68 68 67 68 68 69 69 69 68 68 67 67 65 64 64 65 65 65 69 68 60 63 66 69 67 67 66
66 66 66 66 68 68 68 68 69 69 70 71 70 69 68 68 67 67 65 66 66 66 65 66 65 66 66 66 63 63 64 63 64 64 66 67 68 60 62 65 66 65 66
69 68 67 69 68 67 67 67 67 68 68 69 68 67 68 67 66 65 66 65 65 66 66 65 65 64 64 65 63 64 64 64 62 62 64 65 66 67 63 62 63 63 63
69 69 67 68 68 67 67 66 67 68 69 68 66 66 66 66 66 67 66 64 64 64 63 64 63 64 63 64 64 63 62 63 62 63 61 61 61 64 67 58 58 59 61
68 68 69 68 68 67 66 66 68 68 69 67 67 67 66 67 65 65 64 62 64 63 63 63 61 61 62 62 63 61 60 60 61 61 62 63 62 61 64 63 65 63 57
68 68 68 67 67 67 64 64 65 65 65 64 65 66 66 66 65 64 64 62 63 63 61 61 60 60 60 60 59 59 58 57 57 60 61 62 60 61 60 62 64 65 63
68 68 68 68 67 68 68 68 68 67 65 66 64 65 66 64 65 64 62 62 62 60 59 59 60 59 60 58 57 56 55 55 57 57 59 58 57 60 60 59 58 59 60
67 67 67 68 67 68 68 67 64 64 63 61 61 64 64 64 64 63 61 61 60 61 60 59 59 57 56 55 55 57 53 53 53 56 55 58 56 57 57 57 56 57 57
67 68 68 68 67 67 66 67 65 66 64 63 63 64 63 62 61 62 60 59 59 59 58 57 58 57 56 55 54 56 55 55 52 50 56 56 56 55 55 56 56 55 54
68 66 67 68 68 67 66 67 64 64 63 60 60 59 59 59 60 59 59 58 57 58 57 56 54 52 51 49 56 54 53 54 53 49 47 51 54 55 56 54 54 53 53
68 67 66 67 66 66 63 64 63 63 60 58 58 57 57 58 57 57 58 58 57 57 56 51 48 47 47 55 55 54 54 52 51 50 47 48 48 50 53 54 54 53 52
MSLP
1014.23 1014.86 1015.42 1015.70 1016.06 1016.23 1016.54 1016.83 1017.14 1017.59 1017.88 1018.25 1018.58 1019.05 1019.26 1019.85 1020.01 1020.27 1020.44 1020.44 1020.65 1020.89 1020.90 1021.19 1021.34 1021.42 1021.55 1021.92 1022.16 1022.12 1022.44 1022.37 1022.37 1022.25 1022.24 1022.13 1022.09 1022.05 1022.17 1022.10 1021.63 1021.55 1021.88
1014.22 1014.83 1015.67 1015.94 1016.34 1016.54 1016.74 1017.11 1017.46 1017.89 1018.28 1018.62 1018.92 1019.32 1019.78 1019.96 1020.44 1020.41 1020.63 1020.69 1020.83 1021.09 1021.26 1021.42 1021.49 1021.73 1021.85 1022.28 1022.45 1022.68 1022.78 1022.75 1022.70 1022.68 1022.64 1022.54 1022.62 1022.69 1022.78 1022.69 1022.51 1022.21 1022.17
1014.53 1015.04 1015.71 1016.24 1016.58 1016.90 1017.24 1017.53 1017.91 1018.21 1018.62 1018.92 1019.24 1019.81 1020.07 1020.41 1020.64 1020.81 1021.20 1021.08 1021.24 1021.12 1021.28 1021.48 1021.51 1021.84 1022.00 1022.57 1022.84 1023.25 1023.33 1023.16 1023.24 1023.26 1022.98 1022.70 1023.00 1023.30 1023.28 1023.16 1023.10 1022.89 1022.69
1014.80 1015.27 1015.80 1016.60 1016.92 1017.21 1017.67 1017.96 1018.32 1018.50 1018.91 1019.24 1019.31 1019.94 1020.30 1020.63 1020.98 1021.16 1021.39 1021.54 1021.54 1021.41 1021.47 1021.67 1021.74 1022.24 1022.61 1022.92 1023.14 1023.37 1023.59 1023.66 1023.71 1023.59 1023.26 1023.22 1023.37 1023.85 1023.72 1023.66 1023.51 1023.38 1023.25
1014.91 1015.52 1016.18 1016.59 1017.05 1017.50 1017.88 1018.07 1018.36 1018.71 1019.11 1019.70 1019.38 1020.15 1020.49 1020.85 1021.11 1021.56 1021.52 1021.62 1021.87 1021.84 1021.66 1022.09 1022.27 1022.65 1023.02 1023.26 1023.54 1023.92 1023.94 1023.99 1024.00 1023.75 1023.36 1023.60 1023.60 1024.10 1024.15 1024.05 1023.95 1023.94 1023.73
1015.02 1015.71 1016.52 1016.60 1017.01 1017.34 1017.75 1018.30 1018.85 1019.00 1019.42 1019.87 1020.03 1020.43 1020.87 1021.32 1021.73 1021.90 1021.88 1022.10 1022.28 1022.27 1022.37 1022.57 1022.92 1023.14 1023.49 1023.71 1023.82 1024.20 1024.22 1024.55 1024.12 1023.97 1023.90 1024.21 1024.03 1024.37 1024.46 1024.57 1024.53 1024.53 1024.30
1015.48 1016.17 1016.72 1016.91 1017.21 1017.45 1017.75 1018.28 1019.04 1019.12 1019.79 1019.98 1020.50 1020.65 1020.96 1021.46 1021.93 1022.30 1022.31 1022.44 1022.76 1022.78 1022.78 1022.89 1023.14 1023.48 1023.69 1024.00 1024.31 1024.38 1024.67 1024.77 1024.20 1024.26 1024.39 1024.44 1024.66 1024.70 1024.72 1024.67 1024.70 1024.81 1024.83
1015.88 1016.29 1017.02 1017.70 1018.00 1017.80 1017.83 1018.65 1019.03 1019.52 1020.13 1020.31 1020.97 1021.11 1021.36 1021.71 1022.25 1022.43 1022.66 1022.85 1023.09 1023.20 1023.45 1023.37 1023.59 1023.68 1024.06 1024.34 1024.44 1024.84 1025.01 1024.91 1024.53 1024.54 1024.57 1024.69 1025.11 1025.03 1025.25 1025.15 1025.10 1025.21 1025.19
1016.07 1016.54 1017.33 1018.19 1018.77 1018.70 1018.64 1019.07 1019.28 1020.11 1020.17 1021.05 1021.42 1021.59 1021.92 1022.15 1022.40 1022.63 1023.08 1023.18 1023.34 1023.61 1023.74 1023.84 1023.91 1024.21 1024.32 1024.83 1024.76 1025.23 1025.30 1025.32 1024.79 1024.72 1024.85 1024.89 1025.38 1025.35 1025.47 1025.53 1025.54 1025.47 1025.33
1016.82 1016.91 1017.73 1018.56 1019.15 1019.47 1019.85 1019.62 1019.49 1019.72 1020.75 1021.34 1021.37 1021.85 1022.29 1022.43 1022.66 1023.07 1023.48 1023.69 1023.77 1023.93 1024.04 1024.21 1024.27 1024.62 1024.90 1024.98 1025.47 1025.44 1025.45 1025.47 1025.17 1025.12 1025.15 1025.29 1025.74 1025.66 1025.62 1025.71 1025.84 1025.84 1025.80
1017.89 1018.27 1018.59 1019.44 1019.84 1019.61 1020.24 1020.05 1020.20 1020.10 1021.27 1021.55 1021.72 1022.36 1022.57 1022.60 1023.01 1023.20 1023.70 1023.73 1023.99 1024.18 1024.23 1024.47 1024.61 1024.89 1025.08 1025.33 1025.73 1025.67 1025.42 1025.39 1025.49 1025.28 1025.29 1025.81 1025.81 1025.81 1025.85 1025.90 1025.90 1026.20 1026.12
1018.73 1019.16 1019.00 1018.68 1020.41 1019.81 1020.00 1020.37 1020.64 1021.11 1021.45 1021.62 1021.79 1022.55 1022.61 1023.14 1023.24 1023.41 1023.77 1024.01 1024.32 1024.66 1024.70 1024.89 1024.95 1025.31 1025.11 1025.35 1025.77 1025.79 1025.69 1025.82 1025.85 1025.74 1025.80 1026.02 1025.75 1025.92 1026.06 1026.01 1025.95 1026.21 1026.37
1018.87 1019.21 1019.38 1019.30 1020.12 1020.34 1020.28 1020.73 1020.96 1021.65 1021.90 1021.77 1022.27 1022.67 1022.94 1023.31 1023.63 1023.72 1023.83 1024.23 1024.43 1024.80 1024.91 1025.08 1025.40 1025.45 1025.67 1025.82 1026.01 1025.84 1026.00 1026.12 1026.38 1026.17 1026.14 1026.25 1025.99 1025.85 1025.99 1026.01 1026.09 1026.28 1026.54
1019.11 1019.75 1019.79 1019.81 1020.47 1020.90 1020.83 1021.45 1021.77 1021.84 1021.37 1021.86 1022.40 1022.68 1023.09 1023.37 1023.68 1023.82 1023.95 1024.46 1024.83 1025.05 1025.11 1025.35 1025.70 1025.98 1026.26 1026.39 1026.41 1026.31 1026.51 1026.49 1026.72 1026.50 1026.52 1026.49 1026.17 1026.05 1025.77 1025.94 1026.22 1026.37 1026.65
1019.45 1020.01 1020.23 1020.21 1020.67 1020.84 1021.33 1022.01 1021.94 1021.47 1021.58 1022.18 1022.37 1022.78 1022.99 1023.36 1023.63 1024.13 1024.44 1024.71 1025.06 1025.09 1025.30 1025.57 1025.77 1026.05 1026.19 1026.66 1026.77 1026.95 1026.83 1026.92 1026.92 1026.58 1026.67 1026.93 1026.41 1026.23 1025.97 1025.84 1026.19 1026.51 1026.83
1019.61 1019.94 1020.45 1020.59 1020.48 1020.81 1021.27 1021.72 1021.56 1021.51 1021.88 1022.27 1022.60 1022.87 1023.12 1023.32 1023.73 1024.10 1024.54 1024.80 1025.07 1025.32 1025.54 1025.41 1025.87 1026.12 1026.49 1026.82 1027.06 1027.07 1027.19 1027.19 1027.06 1027.03 1026.84 1026.70 1026.75 1026.35 1026.09 1025.86 1026.23 1026.54 1026.93
1019.49 1019.75 1020.00 1020.37 1020.63 1020.91 1021.15 1021.33 1021.32 1021.54 1021.90 1022.11 1022.57 1022.75 1023.11 1023.29 1023.75 1024.19 1024.62 1024.90 1025.30 1025.68 1025.82 1025.94 1026.29 1026.67 1026.67 1027.09 1027.36 1027.37 1027.39 1027.37 1027.28 1027.36 1027.17 1026.99 1026.81 1026.87 1026.52 1026.37 1026.47 1026.77 1026.90
1018.95 1019.24 1019.76 1020.10 1020.27 1020.52 1020.87 1021.07 1021.26 1021.56 1022.01 1022.31 1022.64 1022.89 1023.14 1023.59 1023.77 1024.26 1024.64 1025.03 1025.38 1025.80 1025.94 1026.18 1026.33 1026.87 1026.95 1027.06 1027.37 1027.48 1027.49 1027.50 1027.68 1027.71 1027.58 1027.36 1027.30 1027.12 1027.07 1027.00 1026.96 1027.10 1027.16
1018.66 1019.11 1019.64 1019.96 1020.09 1020.29 1020.61 1021.09 1021.38 1021.62 1021.88 1022.46 1022.76 1023.00 1023.46 1023.67 1023.93 1024.17 1024.56 1025.13 1025.53 1025.79 1026.24 1026.34 1026.59 1026.80 1027.08 1027.10 1027.27 1027.53 1027.79 1027.87 1027.99 1027.83 1027.74 1027.70 1027.75 1027.61 1027.39 1027.65 1027.58 1027.48 1027.30
1018.43 1018.86 1019.35 1019.65 1019.83 1020.36 1020.61 1021.08 1021.36 1021.62 1022.08 1022.45 1022.72 1023.06 1023.31 1023.63 1024.13 1024.17 1024.85 1025.31 1025.48 1025.87 1026.24 1026.43 1026.75 1027.19 1027.26 1027.41 1027.60 1027.86 1027.93 1027.96 1028.14 1028.09 1027.98 1027.88 1027.87 1028.00 1027.92 1027.82 1027.62 1027.67 1027.77
1017.82 1018.26 1018.62 1019.29 1019.61 1020.12 1020.53 1020.85 1021.35 1021.60 1022.02 1022.52 1022.80 1022.87 1023.22 1023.57 1023.96 1024.37 1024.78 1025.28 1025.62 1025.78 1026.30 1026.65 1026.98 1027.05 1027.32 1027.58 1027.57 1027.63 1027.89 1027.99 1028.03 1027.93 1028.06 1028.00 1028.01 1028.10 1028.08 1027.87 1027.59 1027.61 1027.67
1017.10 1017.65 1018.18 1018.63 1019.12 1019.54 1019.99 1020.38 1020.83 1021.35 1021.94 1022.21 1022.68 1022.88 1023.14 1023.49 1023.87 1024.20 1024.60 1025.08 1025.56 1026.08 1026.50 1026.67 1026.80 1027.20 1027.52 1027.88 1027.40 1027.09 1026.86 1027.35 1027.45 1027.69 1027.92 1027.93 1028.02 1028.02 1027.93 1028.04 1027.94 1027.60 1027.47
1016.55 1017.00 1017.51 1018.14 1018.63 1018.98 1019.43 1020.05 1020.82 1021.44 1022.04 1022.61 1022.85 1022.93 1023.14 1023.62 1023.83 1024.16 1024.51 1025.00 1025.50 1025.87 1026.30 1026.66 1026.87 1027.07 1027.28 1027.89 1027.72 1026.96 1026.58 1026.61 1027.11 1027.40 1027.65 1027.77 1027.97 1027.74 1027.78 1027.77 1027.85 1027.85 1027.79
1015.64 1016.30 1016.85 1017.45 1017.95 1018.60 1019.39 1019.63 1019.89 1020.37 1021.00 1021.64 1022.16 1022.61 1023.12 1023.57 1023.77 1024.10 1024.60 1025.08 1025.51 1025.93 1026.39 1026.79 1027.14 1027.40 1027.07 1026.93 1027.25 1027.01 1026.93 1027.14 1026.84 1026.64 1027.22 1027.40 1027.46 1027.39 1027.38 1027.48 1027.64 1027.85 1028.01
1015.07 1015.63 1016.28 1017.03 1017.58 1018.35 1018.74 1019.25 1019.84 1020.05 1020.67 1021.43 1022.08 1022.57 1023.09 1023.61 1023.75 1024.06 1024.56 1025.08 1025.29 1025.72 1026.29 1026.69 1027.08 1027.44 1027.46 1026.71 1026.58 1026.76 1027.05 1027.17 1027.34 1027.09 1026.40 1026.73 1027.09 1027.06 1027.17 1027.52 1027.66 1027.74 1027.88
1014.35 1015.01 1015.69 1016.45 1017.40 1018.18 1018.87 1019.07 1019.20 1019.68 1020.43 1021.17 1021.78 1022.33 1022.86 1023.53 1023.89 1024.19 1024.48 1024.78 1025.06 1025.67 1026.26 1026.76 1027.04 1026.87 1026.92 1026.42 1026.32 1026.67 1026.58 1026.63 1026.64 1026.84 1026.65 1026.59 1026.76 1027.12 1027.12 1026.87 1026.80 1027.19 1027.51
Wind_Speed
18 19 16 16 16 19 20 21 22 22 22 22 22 21 21 19 19 18 17 18 17 17 18 16 17 18 19 19 19 19 18 17 16 16 17 20 19 19 19 17 14 16 17
21 21 18 17 17 18 19 20 20 20 21 21 21 21 20 20 18 18 18 18 18 18 17 15 16 17 19 19 19 18 18 16 16 16 15 19 19 19 18 18 16 16 17
19 21 21 20 19 19 19 20 20 21 22 22 21 20 20 19 19 18 16 18 17 18 19 19 19 19 19 18 16 16 17 16 14 14 12 13 16 18 18 17 17 18 18
18 19 20 19 20 21 21 21 21 22 22 21 22 20 20 20 19 18 17 17 16 18 21 21 22 21 20 16 16 16 16 15 14 10 12 12 13 17 17 17 17 17 17
19 18 17 19 20 21 21 21 21 21 21 19 23 20 21 20 19 17 18 17 16 17 20 20 21 21 18 16 16 15 16 15 11 11 13 12 11 14 16 16 14 16 17
16 18 17 18 21 22 21 20 18 20 20 18 21 20 20 19 18 17 17 16 16 17 19 19 19 18 16 16 16 15 14 12 9 12 12 11 12 15 15 15 17 17 17
13 13 12 15 18 20 21 21 18 19 18 19 19 20 20 19 17 15 15 16 15 16 16 17 18 17 16 15 14 13 12 9 11 11 11 11 12 15 15 15 15 15 16
9 12 12 12 12 17 21 19 19 17 16 17 16 18 17 16 15 15 14 14 13 13 13 14 15 16 14 14 14 11 9 8 9 10 10 10 12 14 14 15 14 14 14
10 13 13 12 11 12 13 16 16 15 16 14 14 15 13 12 13 15 13 12 13 12 13 13 13 12 13 13 14 11 10 8 9 7 8 7 11 12 12 13 13 13 14
10 11 15 12 9 5 5 13 17 17 14 14 16 15 12 12 12 12 11 11 12 11 12 13 14 14 15 15 13 11 10 8 8 7 6 7 8 9 11 11 12 12 13
15 14 13 13 5 7 5 11 13 17 13 14 13 12 10 9 10 10 9 11 12 11 12 13 15 15 15 15 12 11 6 5 5 4 4 8 6 7 8 9 10 11 11
17 21 21 9 6 7 5 8 9 8 6 9 11 10 7 7 7 7 8 10 10 13 14 14 15 13 9 7 6 7 5 6 5 3 3 9 6 5 6 8 9 10 10
19 14 12 14 6 4 7 4 4 4 6 7 9 7 7 5 5 4 5 4 6 8 7 9 8 7 9 6 6 6 6 5 3 3 5 7 6 2 5 6 7 9 8
15 14 9 11 10 4 4 3 5 6 6 6 7 8 6 4 4 4 4 6 6 4 8 7 6 9 9 9 8 8 6 4 2 2 4 9 7 5 1 6 7 8 8
18 16 12 10 12 6 6 4 6 5 5 6 6 6 5 5 5 4 5 5 5 6 7 7 7 7 8 8 7 6 6 5 4 3 2 8 8 5 4 5 8 7 7
18 18 17 16 10 7 6 6 5 5 6 5 5 5 6 5 5 6 6 6 6 5 6 7 6 6 6 5 6 6 6 4 5 4 4 5 10 8 3 3 7 6 6
15 14 16 14 10 7 8 7 5 5 5 6 5 6 6 7 8 8 6 6 6 6 8 7 7 5 5 5 5 4 4 5 5 6 5 4 4 11 11 7 4 2 3
14 17 16 11 10 8 6 5 4 5 5 4 4 5 7 7 9 7 7 6 7 6 6 5 5 4 4 3 3 3 3 3 4 4 4 4 4 3 8 12 8 5 4
13 13 15 13 11 9 8 6 7 7 5 4 5 5 6 6 8 7 6 7 7 6 5 5 4 3 3 3 3 2 2 2 3 3 5 5 4 3 2 6 7 7 2
14 14 15 11 11 10 7 5 5 5 5 4 5 5 7 6 8 8 7 8 7 6 5 4 5 4 3 3 1 1 1 3 2 2 2 2 3 3 2 2 0 2 5
14 14 14 13 11 8 6 6 5 6 6 5 5 6 8 8 9 9 8 8 6 6 6 6 4 4 3 1 3 4 3 4 4 2 2 1 2 1 1 2 1 2 1
17 16 15 15 13 11 8 7 4 6 5 4 5 7 8 10 11 10 10 8 8 7 7 5 4 3 1 2 3 3 1 4 5 4 2 3 3 2 2 2 3 3 3
17 16 14 14 14 12 12 8 5 5 4 4 5 5 7 10 11 11 10 9 8 6 6 5 4 5 4 3 5 2 1 2 2 3 4 2 2 3 3 4 4 4 4
16 14 15 15 14 13 13 11 12 9 9 7 8 7 8 10 11 10 10 10 9 6 7 5 4 4 5 4 4 2 1 2 3 4 2 3 4 5 5 4 4 5 5
16 15 14 15 14 12 14 14 11 11 6 5 6 11 9 8 9 11 12 12 10 7 7 7 7 5 4 3 3 3 3 2 2 5 8 5 5 5 4 4 5 4 3
14 13 13 14 12 11 12 14 16 14 10 9 9 9 8 7 8 10 12 10 10 8 8 7 5 7 6 5 4 4 3 3 3 5 7 8 8 6 5 5 6 4 3
Wind_Direction
156 155 146 139 133 126 123 121 121 122 122 120 118 116 111 111 110 107 106 104 103 102 101 101 101 98 97 92 86 83 80 73 72 72 70 67 64 60 55 49 49 58 57
150 151 146 141 136 127 124 122 120 120 121 121 118 115 115 114 112 109 111 108 105 102 101 104 105 106 104 101 94 89 85 77 73 71 71 76 67 62 59 54 46 55 54
148 148 146 143 141 133 127 125 127 127 127 121 117 116 114 112 112 109 107 107 106 105 105 104 109 112 113 108 94 87 84 78 71 69 70 72 69 65 64 62 57 54 54
145 150 149 144 140 137 137 135 134 131 126 126 120 118 117 114 112 113 112 107 108 104 104 103 106 108 109 105 95 94 90 86 78 77 69 63 68 62 61 59 60 60 61
148 150 144 140 139 138 138 137 134 128 123 128 117 125 120 118 117 117 114 112 105 101 103 103 103 107 102 98 95 91 87 81 80 78 73 63 64 63 60 56 63 62 57
145 152 140 139 141 140 136 128 125 123 122 127 121 122 120 118 115 115 114 106 102 96 97 100 106 106 101 97 96 96 91 87 83 73 71 73 66 66 63 59 57 57 55
142 141 134 137 141 136 128 124 122 120 127 124 128 125 123 120 119 113 107 103 99 97 98 102 109 111 107 104 105 98 93 82 83 75 71 66 66 66 67 68 64 59 53
136 122 125 126 117 122 124 125 121 120 127 118 128 122 121 117 117 108 105 106 105 102 102 96 108 113 112 107 101 96 100 98 87 76 68 68 73 73 70 68 68 66 62
118 117 104 112 112 83 96 118 114 125 110 117 118 114 113 118 106 105 106 104 103 107 108 104 100 102 97 90 88 86 79 65 78 77 65 64 75 73 72 70 70 72 68
100 110 113 113 121 89 121 119 110 108 110 126 123 120 122 110 105 97 102 99 98 97 102 102 94 95 97 90 86 86 84 76 72 77 70 73 78 77 69 68 69 70 71
82 86 96 107 148 103 140 109 111 108 124 131 119 120 124 125 112 113 96 104 104 102 99 96 95 91 90 81 79 75 74 71 74 68 64 17 70 83 85 80 78 74 73
114 120 130 146 159 120 111 116 95 113 142 139 134 141 123 116 119 112 104 90 100 96 94 93 91 92 98 94 89 76 68 59 52 56 60 8 24 102 102 93 84 81 80
131 136 137 130 113 101 86 92 112 155 170 127 126 128 120 123 125 120 113 110 118 98 104 98 98 90 88 92 87 76 66 62 46 47 47 14 14 20 132 112 101 100 94
139 140 131 128 123 110 114 164 162 177 144 137 143 133 137 138 142 127 115 109 107 113 108 106 102 97 94 86 77 77 72 65 47 52 46 16 12 358 353 146 125 114 105
142 144 140 136 156 152 158 183 181 144 132 148 146 149 148 153 128 137 119 124 121 121 122 119 110 101 95 90 82 87 79 72 53 37 12 22 22 4 320 184 152 131 119
154 164 161 166 183 184 167 188 163 141 150 158 159 166 168 159 143 138 136 131 126 130 123 112 109 102 95 90 77 68 64 62 61 42 30 48 34 31 354 229 163 152 141
182 187 181 178 187 184 186 179 161 158 167 171 182 165 159 160 154 144 131 133 132 122 115 108 103 95 94 85 80 90 99 80 59 38 25 30 49 46 41 69 117 125 170
180 183 186 192 191 181 188 176 158 165 172 177 173 161 152 153 145 142 146 137 130 130 117 111 102 98 91 88 93 83 82 85 75 61 51 42 49 54 67 53 67 75 69
198 195 199 199 197 185 185 180 172 172 172 164 158 153 157 156 154 154 141 133 141 123 118 119 103 103 102 94 98 109 88 114 105 105 87 88 78 50 66 74 66 55 34
192 195 201 197 192 187 176 171 161 169 178 162 168 174 164 163 164 141 139 141 133 126 122 108 106 88 64 35 339 179 141 145 142 114 105 117 98 67 15 343 86 77 39
194 197 197 197 190 172 163 167 179 184 178 176 186 179 175 170 156 151 142 136 136 130 121 126 124 107 130 126 216 210 182 160 156 172 199 177 141 350 273 259 260 299 245
197 199 197 198 187 186 184 179 181 178 181 175 175 173 180 165 162 153 146 141 134 128 130 137 143 137 143 214 255 221 174 175 205 211 227 227 226 279 257 294 295 254 244
206 203 203 200 194 192 188 166 122 124 116 158 177 164 164 163 157 150 144 140 140 141 140 143 147 178 188 198 238 307 222 298 294 167 200 231 276 293 279 264 274 297 312
209 205 205 199 195 192 187 187 184 194 188 194 182 163 157 158 149 148 142 144 141 137 139 144 167 205 189 186 186 158 112 269 304 281 184 280 289 282 280 285 285 304 314
201 200 201 200 200 188 188 197 200 197 194 157 157 149 149 151 153 149 150 151 146 144 149 162 165 177 231 165 200 164 190 173 201 277 294 285 287 289 310 314 312 302 285
200 196 192 195 195 190 196 203 200 201 170 163 165 159 159 162 161 163 159 158 149 149 160 153 141 187 209 176 161 191 221 241 262 269 283 299 307 310 294 280 279 269 241